Home > Time Zones > World Clock > Weather > Ghana > Accra > Past weeks

Flag for Ghana Weather past 2 weeks in Accra, Ghana

Now
79 °F

Passing clouds.


Feels Like: 82 °F
Forecast: N/A
Wind: 10 mph from Southwest

Location: Accra Airport

Current Time: Oct 21, 2014 at 9:44:50 PM

Latest Report: Oct 21, 2014 at 9:00 PM


Visibility: N/A

Pressure: 29.95 "Hg

Humidity: 89%

Dew point: 75 °F

Location of AccraLocation

Historic Weather in Accra — Graph

°F

Accra temperature yesterday

Maximum temperature yesterday: 84 °F (at 11:52 AM)
Minimum temperature yesterday: 75 °F (at 4:50 AM)
Average temperature yesterday: 79 °F

Past Weeks' High & Low Weather Summary

 TemperatureHumidityPressure
High86 °F (Oct 7, 10:49 AM)100% (Oct 12, 3:51 AM)30.01 "Hg (Oct 12, 3:51 AM)
Low73 °F (Oct 11, 1:00 PM)66% (Oct 7, 10:49 AM)29.80 "Hg (Oct 10, 3:00 PM)
Average80 °F84%29.90 "Hg
* Reported Oct 6 8:00 PM — Oct 21 8:00 PM, Accra, Weather by CustomWeather, © 2014

Note: Actual official high and low records may vary slightly from our data, if they occured in-between our weather recording intervals... More about our weather records

Advertising

Accra weather history for previous 24 hours

 ConditionsComfort  
Time TempWeatherWind HumidityBarometerVisibility
8:00 PM
Oct 21
79 °FPassing clouds.10 mph89%29.92 "HgN/A
7:00 PM81 °FPassing clouds.12 mph84%29.89 "HgN/A
6:00 PM81 °FPartly cloudy.13 mph84%29.86 "HgN/A
5:00 PM81 °FScattered clouds.13 mph84%29.86 "HgN/A
4:00 PM82 °FPassing clouds.15 mph79%29.86 "HgN/A
3:00 PM84 °FPassing clouds.14 mph74%29.86 "HgN/A
2:00 PM84 °FSunny.15 mph70%29.86 "Hg10 mi
1:00 PM86 °FSunny.13 mph66%29.86 "Hg10 mi
12:00 PM86 °FScattered clouds.13 mph70%29.95 "HgN/A
11:00 AM84 °FScattered clouds.9 mph70%29.92 "HgN/A
10:00 AM82 °FPassing clouds.9 mph74%29.92 "HgN/A
9:00 AM81 °FPassing clouds.9 mph79%29.92 "HgN/A
8:00 AM77 °FSunny.10 mph89%29.92 "Hg10 mi
7:00 AM75 °FSunny.7 mph94%29.89 "Hg10 mi
6:00 AM75 °FSunny.8 mph94%29.89 "Hg10 mi
5:00 AM75 °FClear.7 mph94%29.86 "Hg10 mi
3:00 AM77 °FPassing clouds.7 mph89%29.86 "HgN/A
2:00 AM77 °FPassing clouds.7 mph94%29.89 "HgN/A
1:00 AM77 °FPassing clouds.6 mph94%29.89 "HgN/A
12:00 AM79 °FPassing clouds.6 mph89%29.92 "HgN/A
11:00 PM
Oct 20
79 °FClear.7 mph89%29.92 "Hg10 mi
10:00 PM79 °FPassing clouds.7 mph89%29.95 "HgN/A
9:00 PM79 °FPassing clouds.9 mph89%29.92 "HgN/A
Weather by CustomWeather, © 2014

See weather overviewHow to use our weather pages